Home   Weather   Peoria   Past weeks

Flag for USA Past Weather in Peoria, Illinois, USA — Yesterday and Last 2 Weeks

Now
72 °F

Clear.


Feels Like: 65 °F
Forecast: 65 / 80 °F
Wind: 5 mph from Northwest

Location: Greater Peoria Regional Airport

Current Time: Aug 31, 2016 at 3:12:09 AM

Latest Report: Aug 31, 2016 at 1:54 AM


Visibility: 8 mi

Pressure: 30.05 "Hg

Humidity: 100%

Dew Point: 72 °F

Location of PeoriaLocation

Past Weather in Peoria — Graph

°F

Peoria Temperature Yesterday

Maximum temperature yesterday: 81 °F (at 1:54 PM)
Minimum temperature yesterday: 70 °F (at 8:54 AM)
Average temperature yesterday: 75 °F

High & Low Weather Summary for the Past Weeks

 TemperatureHumidityPressure
High88 °F (Aug 18, 1:54 PM)100% (Aug 16, 1:54 AM)30.22 "Hg (Aug 16, 1:54 AM)
Low56 °F (Aug 22, 5:54 AM)45% (Aug 21, 4:54 PM)29.67 "Hg (Aug 20, 8:54 AM)
Average75 °F83%30.04 "Hg
* Reported Aug 16 1:54 AM — Aug 31 1:54 AM, Peoria, Weather by CustomWeather, © 2016

Note: Actual official high and low records may vary slightly from our data, if they occured in-between our weather recording intervals... More about our weather records

Advertising

Peoria Weather History for the Previous 24 Hours

Scroll right to see more
 ConditionsComfort  
Time TempWeatherWind HumidityBarometerVisibility
1:54 AM
Wed, Aug 31
72 °FClear.5 mph100%30.05 "Hg8 mi
12:54 AM73 °FClear.3 mph100%30.05 "Hg8 mi
11:54 PM
Tue, Aug 30
73 °FPassing clouds.No wind100%30.06 "Hg7 mi
10:54 PM74 °FClear.3 mph100%30.06 "Hg8 mi
9:54 PM75 °FClear.No wind100%30.06 "Hg10 mi
8:54 PM75 °FClear.3 mph100%30.06 "Hg10 mi
7:54 PM77 °FSunny.No wind94%30.05 "Hg10 mi
6:54 PM80 °FSunny.3 mph85%30.04 "Hg10 mi
5:54 PM81 °FSunny.5 mph79%30.05 "Hg10 mi
4:54 PM80 °FSunny.5 mph81%30.06 "Hg10 mi
3:54 PM81 °FSunny.6 mph79%30.07 "Hg10 mi
2:54 PM81 °FPassing clouds.8 mph79%30.08 "Hg10 mi
1:54 PM81 °FSunny.7 mph77%30.09 "Hg10 mi
12:54 PM80 °FSunny.7 mph81%30.10 "Hg10 mi
11:54 AM79 °FSunny.9 mph84%30.11 "Hg10 mi
10:54 AM74 °FSunny.9 mph97%30.12 "Hg10 mi
9:54 AM71 °FLight rain. Fog.6 mph100%30.16 "Hg6 mi
8:54 AM70 °FThunderstorms. Fog.7 mph100%30.17 "Hg4 mi
8:03 AM71 °FHeavy rain. Fog.7 mph100%30.18 "Hg2 mi
7:54 AM71 °FThundershowers. Fog.6 mph100%30.16 "Hg4 mi
7:00 AM71 °FThundershowers. Low clouds.6 mph100%30.16 "Hg10 mi
6:54 AM71 °FThunderstorms. Overcast.7 mph100%30.14 "Hg10 mi
5:54 AM71 °FThundershowers. Overcast.8 mph96%30.14 "Hg10 mi
4:54 AM73 °FMostly cloudy.9 mph97%30.14 "Hg10 mi
3:54 AM74 °FFog.No wind100%30.11 "Hg6 mi
Weather by CustomWeather, © 2016

See weather overviewHow to use our weather pages